Location: Haieshausen
(51.8387°N, 9.9720°E)
Time: 04:14:07
(UTC+00:00)

USA 215 - Pass Details

Date: 14 July 2020
Orbit: 1102 x 1106 km, 123.0° (Epoch: 08 August)

Event Time Altitude Azimuth Distance (km) Brightness Sun altitude
Rises 01:33:17 0° 78° (ENE) 3,925 6.8 -11.4°
Reaches altitude 10° 01:35:48 10° 74° (ENE) 2,966 6.2 -11.2°
Maximum altitude 01:42:10 57° 358° (N) 1,280 4.0 -10.7°
Drops below altitude 10° 01:48:33 10° 282° (WNW) 2,964 5.3 -10.2°
Sets 01:51:04 0° 279° (W) 3,922 5.9 -10.0°
